Search your local weather  

 
Advertise Here

Hazardous Weather Conditions

No active alerts for NEW YORK, NEW YORK

Current Conditions: NEW YORK, NEW YORK

Fair


73.0 F

Last Updated on Jul 27 2021, 1:51 am EDT
Humidity: 74%
Wind Speed: NE 3.5 mph
Barometer 29.93 in
Dewpoint: 64.0 F
Visibility: 10.00 mi
Precip: --
Heat Index: NA
Wind Chill: NA
Current conditions at:

Teterboro, Teterboro Airport, NJ (KTEB)

Lat: 40.85889 Lon: -74.05667

Local Radar Image active severe weather and emergency alerts image image weather storm and storm spotter reports image weather observation monitoring service image
Local
Radar
Active
Alerts
Storm Reports Weather
Monitoring

Sign-up For Email & Text Message Weather Alert Notification Services


Advertise Here

Observation History for NEW YORK, NEW YORK


Time Wind
(mph)
Vis
(mi)
Weather Precip (in) Temperature (F) Relative
Humidity
Wind
Chill
(F)
Heat
Index
(F)
Pressure
Air Dwpt altimeter
(in)
sea level
(mb)
1:51 am EDT NE 3.5 10.00 Fair -- 73.0 64.0 74% NA NA 29.93 1013.3
12:51 am EDT N 0.0 7.00 Fair -- 75.0 62.1 64% NA NA 29.93 1013.4
11:51 pm EDT N 3.5 7.00 Fair -- 77.0 61.0 58% NA NA 29.92 1013.3
10:51 pm EDT W 5.8 8.00 Fair -- 78.0 60.1 54% NA NA 29.92 1013.1
9:51 pm EDT W 4.6 7.00 Fair -- 80.0 59.0 49% NA 81 29.90 1012.6
8:51 pm EDT W 4.6 8.00 Fair -- 80.0 59.0 49% NA 81 29.89 1012.1
7:51 pm EDT NW 5.8 7.00 Fair -- 84.0 55.9 38% NA 83 29.87 1011.5
6:51 pm EDT N 8.1 9.00 Fair -- 85.0 57.0 39% NA 84 29.86 1011.2
5:51 pm EDT NW 11.5 10.00 Fair -- 86.0 55.9 36% NA 85 29.87 1011.3
4:51 pm EDT N 11.5 10.00 Fair -- 88.0 57.0 35% NA 87 29.87 1011.3
3:51 pm EDT NW 11.5 10.00 A Few Clouds -- 89.0 62.1 41% NA 89 29.87 1011.3
2:51 pm EDT N 11.5 10.00 Fair -- 87.0 62.1 43% NA 87 29.87 1011.4
1:51 pm EDT N 0.0 9.00 Partly Cloudy -- 86.0 64.9 49% NA 88 29.87 1011.6
12:51 pm EDT 4.6 9.00 A Few Clouds -- 86.0 64.0 48% NA 87 29.88 1011.8
11:51 am EDT 5.8 7.00 Fair -- 86.0 64.9 49% NA 88 29.88 1011.8
10:51 am EDT 6.9 8.00 Fair -- 84.0 66.9 57% NA 87 29.88 1011.9
9:51 am EDT 3.5 7.00 Fair -- 82.0 66.9 60% NA 84 29.88 1011.9
8:51 am EDT N 0.0 7.00 Shallow Fog -- 79.0 72.0 79% NA NA 29.89 1012.1
7:51 am EDT N 0.0 9.00 Shallow Fog -- 76.0 73.0 91% NA NA 29.88 1011.7
6:51 am EDT N 0.0 9.00 Shallow Fog -- 74.0 71.1 91% NA NA 29.87 1011.5
5:51 am EDT SW 4.6 5.00 Shallow Fog -- 71.0 70.0 96% NA NA 29.87 1011.3
4:51 am EDT N 0.0 10.00 Fair -- 73.0 70.0 90% NA NA 29.86 1011.0
3:51 am EDT N 0.0 10.00 Fair -- 73.0 70.0 90% NA NA 29.86 1011.0
2:51 am EDT N 0.0 8.00 Overcast -- 73.0 71.1 94% NA NA 29.88 1011.8

Regional Weather Observation

Caldwell, Essex County Airport, NJ (KCDW)

Fair with Haze
70.0 F

New York Downtown Manhattan, NY (KJRB)

Fair
79.0 F

Morristown Municipal, NJ (KMMU)

Fair
64.0 F

Newark, Newark International Airport, NJ (KEWR)

Fair
79.0 F

Linden Airport, NJ (KLDJ)

Fair
74.0 F

New York City, Central Park, NY (KNYC)

Fair
78.0 F
Advertise Here

Advertise Here